This demonstration page uses our WeatherBlox Daily Observations layout. Learn more.

Left ArrowRight Arrow

34.02893, -84.19858

Hourly Observations for July 19, 2021

Temp ( °F °C ) Dew Point ( °F °C ) Humidity (%) Winds ( mph kmh ) Pressure ( in mb ) Visibility ( mi km ) Precip ( " mm )
12:53 am 00:53 Mostly Cloudy 72 22.2 71 21.7 97 97 SW 5 7 30.06 1018 10 16 0.03 0.76
1:44 am 01:44 Mostly Cloudy 72 22.2 71 21.7 97 97 WSW 5 7 30.07 1018 10 16 0.00 0.00
1:53 am 01:53 Cloudy with Light Rain 72 22.2 71 21.7 97 97 WSW 6 9 30.04 1017 10 16 0.00 0.00
2:22 am 02:22 Cloudy 72 22.2 71 21.7 97 97 W 3 6 30.06 1018 10 16 0.00 0.00
2:53 am 02:53 Cloudy 72 22.2 71 21.7 97 97 WSW 5 7 30.03 1017 10 16 0.00 0.00
3:32 am 03:32 Cloudy 72 22.2 71 21.7 97 97 W 5 7 30.05 1017 10 16 0.00 0.00
3:53 am 03:53 Cloudy 72 22.2 71 21.7 97 97 W 5 7 30.02 1017 10 16 0.00 0.00
4:53 am 04:53 Cloudy 72 22.2 71 21.7 97 97 WSW 5 7 30.02 1017 10 16 0.00 0.00
5:04 am 05:04 Cloudy 72 22.2 71 21.7 97 97 WSW 3 6 30.05 1017 10 16 0.00 0.00
5:28 am 05:28 Cloudy 72 22.2 71 21.7 97 97 SW 5 7 30.05 1017 10 16 0.00 0.00
5:53 am 05:53 Cloudy 72 22.2 71 21.7 97 97 SW 6 9 30.03 1017 10 16 0.00 0.00
6:00 am 06:00 Cloudy 72 22.2 71 21.7 97 97 SW 6 9 30.05 1017 10 16 0.00 0.00
6:17 am 06:17 Cloudy 72 22.2 71 21.7 97 97 WSW 6 9 30.05 1017 10 16 0.00 0.00
6:40 am 06:40 Cloudy 72 22.2 71 21.7 97 97 SW 3 6 30.05 1017 9 14 0.00 0.00
6:53 am 06:53 Cloudy 72 22.2 71 21.7 97 97 SW 5 7 30.04 1017 9 14 0.00 0.00
7:53 am 07:53 Cloudy 73 22.8 71 21.7 94 94 WSW 3 6 30.05 1018 10 16 0.00 0.00
8:53 am 08:53 Cloudy with Light Rain 73 22.8 71 21.7 94 94 WSW 3 6 30.06 1018 6 10 0.04 1.02
9:53 am 09:53 Cloudy 73 22.8 72 22.2 96 96 SW 6 9 30.07 1018 10 16 0.00 0.00
10:53 am 10:53 Cloudy 74 23.3 72 22.2 94 94 SW 5 7 30.07 1018 10 16 0.00 0.00
11:53 am 11:53 Cloudy 75 23.9 71 21.7 88 88 WSW 6 9 30.07 1018 10 16 0.00 0.00
12:53 pm 12:53 Cloudy with Light Rain 74 23.3 72 22.2 94 94 WSW 7 11 30.06 1018 7 11 0.03 0.76
1:53 pm 13:53 Cloudy 76 24.4 71 21.7 85 85 SSE 5 7 30.03 1017 10 16 0.01 0.25
2:44 pm 14:44 Mostly Cloudy 77 25 70 21.1 79 79 SSW 3 6 30.02 1016 10 16 0.00 0.00
2:53 pm 14:53 Partly Cloudy 78 25.6 71 21.7 79 79 VRB 3 6 30.01 1016 10 16 0.00 0.00
3:35 pm 15:35 Mostly Cloudy 79 26.1 70 21.1 74 74 VRB 6 9 29.99 1016 10 16 0.00 0.00
3:53 pm 15:53 Cloudy 79 26.1 70 21.1 74 74 SSW 3 6 29.98 1015 10 16 0.00 0.00
4:53 pm 16:53 Mostly Cloudy 79 26.1 70 21.1 74 74 Calm 29.96 1015 10 16 0.00 0.00
5:53 pm 17:53 Cloudy with Light Rain 74 23.3 72 22.2 94 94 SSE 3 6 29.97 1015 4 6 0.08 2.03
6:53 pm 18:53 Cloudy with Light Rain 74 23.3 71 21.7 91 91 SSW 3 6 29.96 1015 3 5 0.08 2.03
7:53 pm 19:53 Cloudy 73 22.8 72 22.2 96 96 Calm 29.97 1015 9 14 0.02 0.51
8:53 pm 20:53 Cloudy 73 22.8 72 22.2 96 96 S 5 7 29.98 1015 10 16 0.01 0.25
9:28 pm 21:28 Cloudy with Light Rain 73 22.8 72 22.2 96 96 S 5 7 29.98 1015 8 13 0.00 0.00
9:48 pm 21:48 Cloudy with Nearby Thunderstorms 72 22 72 22 100 100 SSE 6 9 29.99 1015 10 16 0.00 0.00
9:50 pm 21:50 Cloudy with Nearby Thunderstorms 72 22 72 22 100 100 SSE 6 9 29.99 1015 10 16 0.00 0.00
9:53 pm 21:53 Cloudy with Nearby Thunderstorms 72 22.2 71 21.7 97 97 SSE 6 9 29.98 1015 9 14 0.00 0.00
10:03 pm 22:03 Cloudy with Light Rain 72 22.2 71 21.7 97 97 SSE 6 9 29.99 1015 9 14 0.00 0.00
10:53 pm 22:53 Cloudy with Light Rain 71 21.7 71 21.7 100 100 S 5 7 29.99 1016 10 16 0.02 0.51
11:00 pm 23:00 Cloudy with Light Rain 71 21.7 71 21.7 100 100 S 6 9 30.00 1016 10 16 0.00 0.00
11:11 pm 23:11 Mostly Cloudy with Light Rain 71 21.7 71 21.7 100 100 S 3 6 30.00 1016 10 16 0.00 0.00
11:32 pm 23:32 Cloudy with Light Rain 71 21.7 71 21.7 100 100 S 6 9 30.00 1016 9 14 0.01 0.25
11:53 pm 23:53 Cloudy with Light Rain 72 22.2 71 21.7 97 97 SSW 7 11 29.98 1015 10 16 0.01 0.25

Powered by AerisWeather